Flag for Sao Tome and Principe Weather past 2 weeks in São Tomé, Sao Tome and Principe

Now
77 °F

Passing clouds.


Feels Like: 78 °F
Forecast: 80 / 87 °F
Wind: 5 mph from Southwest

Location: S. Tome

Current Time: Apr 21, 2015 at 6:54:22 AM

Latest Report: Apr 21, 2015 at 4:00 AM


Visibility: N/A

Pressure: 29.80 "Hg

Humidity: 83%

Dew point: 72 °F

Location of São ToméLocation

Historic Weather in São Tomé — Graph

°F

São Tomé temperature yesterday

Maximum temperature yesterday: 88 °F (at 3:00 PM)
Minimum temperature yesterday: 75 °F (at 3:00 AM)
Average temperature yesterday: 82 °F

Past Weeks' High & Low Weather Summary

 TemperatureHumidityPressure
High88 °F (Apr 6, 9:00 AM)94% (Apr 6, 5:00 AM)32.84 "Hg (Apr 6, 5:00 AM)
Low72 °F (Apr 14, 6:00 AM)66% (Apr 8, 3:00 PM)29.77 "Hg (Apr 6, 2:00 PM)
Average81 °F81%29.88 "Hg
* Reported Apr 6 5:00 AM — Apr 21 4:00 AM, São Tomé, Weather by CustomWeather, © 2015

Note: Actual official high and low records may vary slightly from our data, if they occured in-between our weather recording intervals... More about our weather records

Advertising

São Tomé weather history for previous 24 hours

 ConditionsComfort  
Time TempWeatherWind HumidityBarometerVisibility
4:00 AM
Tue, Apr 21
77 °FPassing clouds.5 mph83%29.80 "HgN/A
11:00 PM
Mon, Apr 20
79 °FPassing clouds.5 mph84%29.86 "HgN/A
10:00 PM79 °FPassing clouds.5 mph89%29.86 "HgN/A
9:00 PM81 °FPassing clouds.5 mph89%29.86 "HgN/A
8:00 PM81 °FPassing clouds.7 mph89%29.86 "HgN/A
7:00 PM81 °FPassing clouds.5 mph84%29.80 "HgN/A
6:00 PM84 °FPassing clouds.7 mph74%29.80 "HgN/A
5:00 PM86 °FPartly sunny.7 mph75%29.80 "HgN/A
4:00 PM86 °FPartly sunny.9 mph75%29.80 "HgN/A
3:00 PM88 °FPartly sunny.12 mph70%29.80 "HgN/A
2:00 PM86 °FPartly sunny.14 mph75%29.83 "HgN/A
1:00 PM86 °FPartly sunny.12 mph75%29.83 "HgN/A
11:00 AM84 °FThunderstorms. Partly sunny.16 mph79%29.86 "HgN/A
10:00 AM84 °FThunderstorms. Partly sunny.16 mph79%29.89 "HgN/A
9:00 AM84 °FThunderstorms. Partly sunny.5 mph79%29.89 "HgN/A
8:00 AM81 °FThunderstorms. Partly sunny.9 mph79%29.89 "HgN/A
7:00 AM79 °FThunderstorms. Partly sunny.5 mph79%29.86 "HgN/A
Weather by CustomWeather, © 2015

See weather overviewHow to use our weather pages